Location: Krasnoyarskiy
(51.1133°N, 71.6497°E)
Time: 21:47:21
(UTC+00:00)

Envisat - Visible Passes

Search period start: 26 March 2023 00:00
Search period end: 05 April 2023 00:00
Orbit: 763 x 765 km, 98.2° (Epoch: 26 March)

Date Brightness Start Highest point End Pass type
(mag) Time Alt. Az. Time Alt. Az. Time Alt. Az.
26 Mar 5.1 22:17:46 10° NE 22:21:52 24° E 22:25:56 10° SE visible
26 Mar 3.1 23:56:14 10° N 00:01:13 57° WNW 00:06:11 10° SSW visible
27 Mar 5.8 21:42:25 10° ENE 21:44:15 12° E 21:46:06 10° ESE visible
27 Mar 3.2 23:19:03 10° NNE 23:24:10 74° ESE 23:29:14 10° S visible
28 Mar 4.4 22:42:11 10° NNE 22:46:55 37° E 22:51:36 10° SSE visible
29 Mar 3.6 00:21:15 10° N 00:25:55 37° WNW 00:30:32 10° SW visible
29 Mar 5.4 22:05:50 10° NE 22:09:27 19° E 22:13:03 10° SE visible
29 Mar 3.0 23:43:54 10° N 23:48:59 71° WNW 23:54:01 10° SSW visible
30 Mar 3.5 23:06:49 10° NNE 23:11:51 60° E 23:16:52 10° S visible
31 Mar 4.7 22:30:03 10° NNE 22:34:32 30° E 22:38:59 10° SSE visible
01 Apr 3.4 00:08:52 10° N 00:13:42 45° WNW 00:18:31 10° SW visible
01 Apr 5.6 21:54:02 10° NE 21:57:00 15° E 21:59:57 10° ESE visible
01 Apr 3.0 23:31:35 10° NNE 23:36:43 87° WNW 23:41:48 10° SSW visible
02 Apr 3.9 22:54:35 10° NNE 22:59:32 47° E 23:04:25 10° S visible
03 Apr 5.1 22:18:00 10° NE 22:22:08 24° E 22:26:14 10° SE visible
03 Apr 3.2 23:56:29 10° N 00:01:28 56° WNW 00:06:25 10° SW visible
04 Apr 5.7 21:42:32 10° ENE 21:44:32 12° E 21:46:30 10° ESE visible
04 Apr 3.2 23:19:18 10° NNE 23:24:25 76° ESE 23:29:29 10° S visible
